Temp
73 72 72 73 73 73 72 72 71 66 69 73 74 76 75 74 74 75 75 73 72 72 72 72 73 74 75 76 76 76 77 77 77 76 76 77 77 78
73 73 73 73 73 73 73 72 71 70 69 73 75 77 77 77 76 75 75 73 72 72 71 71 71 72 74 74 74 74 74 75 75 75 75 75 75 76
75 74 74 74 74 73 73 72 71 71 69 74 74 76 76 76 77 77 76 74 73 71 71 70 70 71 72 73 73 73 73 73 73 74 74 74 74 74
76 74 75 73 74 73 73 73 72 72 71 71 74 73 74 76 77 76 76 76 75 73 70 69 69 69 70 70 70 70 70 70 71 71 72 73 73 73
74 75 75 73 73 73 73 73 72 72 71 71 72 72 75 76 75 75 75 76 76 73 70 69 68 68 68 67 67 66 65 66 67 67 68 69 71 72
74 75 75 75 74 73 73 73 73 72 71 70 71 72 73 75 74 74 72 74 76 78 74 72 70 69 68 66 66 66 64 63 63 64 65 65 67 69
72 73 74 74 73 72 74 75 74 73 72 70 71 72 71 71 72 74 73 74 74 76 76 73 71 71 71 68 70 69 66 64 63 62 62 62 63 64
70 71 71 72 72 70 70 70 72 73 72 72 72 72 73 73 74 74 74 72 72 74 73 72 72 70 71 71 71 68 66 65 64 63 62 62 62 63
68 68 70 75 72 73 71 69 68 68 70 74 71 74 74 74 75 73 73 73 74 74 75 72 71 71 73 73 68 67 66 65 64 63 63 62 61 60
67 68 68 69 71 71 73 73 74 76 73 71 72 74 77 76 76 77 76 75 75 74 75 74 71 73 74 75 67 67 66 64 63 62 62 60 58 57
68 69 69 69 67 65 71 72 74 75 69 66 67 66 65 65 70 74 72 72 73 74 72 76 74 73 73 75 75 66 64 63 61 61 61 59 57 56
67 68 66 68 65 63 69 72 70 72 74 72 72 72 70 71 66 74 75 73 73 72 73 72 73 74 73 74 75 75 72 60 59 59 60 58 57 63
69 70 71 64 62 59 59 71 72 71 69 68 69 69 71 73 74 73 75 75 74 73 72 75 73 72 73 71 72 74 74 69 69 66 57 56 56 61
70 73 71 62 59 57 59 63 62 63 68 67 67 69 72 74 72 72 73 75 76 76 75 76 75 71 72 70 70 72 73 74 73 72 67 57 54 55
69 68 61 57 56 59 58 60 60 65 67 67 67 69 71 75 73 72 74 74 74 75 75 74 73 70 72 72 71 70 71 72 73 71 68 67 65 62
65 67 64 63 61 64 65 65 67 67 67 68 69 71 71 69 68 72 72 71 71 71 73 74 73 71 69 71 71 70 72 71 71 71 71 68 68 66
60 66 66 66 65 65 65 66 67 68 69 70 68 69 70 71 71 72 72 70 68 69 69 69 71 71 72 72 69 70 69 69 71 67 65 61 61 62
59 63 64 66 67 68 68 68 67 67 68 69 69 69 70 70 71 71 71 69 68 68 68 69 67 65 64 65 64 72 70 69 69 68 69 67 65 64
56 62 62 63 67 68 68 70 71 71 71 69 69 70 70 69 68 69 70 68 67 68 67 67 67 67 64 65 66 56 70 69 68 68 69 68 64 64
57 62 64 66 68 69 70 70 69 69 68 69 69 70 70 70 70 69 69 67 67 68 67 66 68 70 70 71 67 66 53 69 69 65 59 58 59 57
65 63 65 67 69 70 71 71 71 72 70 68 69 69 70 70 69 70 69 60 62 67 67 68 68 64 70 70 67 65 65 54 63 66 62 58 58 60
65 65 66 67 67 68 69 70 70 68 69 69 69 69 70 70 70 70 69 68 65 68 69 68 63 65 67 69 68 63 63 62 58 56 57 60 65 62
63 64 65 66 67 66 67 66 67 67 68 69 69 68 69 69 69 69 70 68 68 67 64 61 62 63 59 61 60 59 60 61 65 64 62 56 57 57
MSLP
1017.82 1017.72 1017.93 1017.84 1017.91 1018.09 1018.30 1018.39 1018.68 1018.47 1017.88 1017.16 1016.81 1016.32 1016.43 1016.77 1016.80 1016.99 1017.20 1017.51 1017.95 1018.17 1018.41 1018.68 1018.98 1019.35 1019.82 1020.21 1020.64 1021.03 1021.21 1021.48 1021.86 1022.29 1022.65 1023.02 1023.34 1023.56
1016.81 1017.25 1017.27 1017.21 1017.20 1017.31 1017.39 1017.62 1017.91 1018.02 1017.65 1016.87 1016.43 1016.17 1015.92 1016.10 1016.30 1016.52 1016.77 1017.00 1017.32 1017.53 1017.77 1018.04 1018.38 1018.68 1019.02 1019.48 1019.87 1020.26 1020.64 1020.91 1021.20 1021.56 1021.93 1022.27 1022.66 1023.02
1016.09 1016.51 1016.56 1016.57 1016.50 1016.59 1016.74 1016.90 1016.92 1017.16 1017.14 1016.48 1016.20 1015.77 1015.66 1015.74 1015.83 1015.90 1016.26 1016.51 1016.62 1016.87 1017.14 1017.45 1017.77 1018.09 1018.47 1018.86 1019.24 1019.56 1019.84 1020.20 1020.53 1020.86 1021.22 1021.61 1021.96 1022.20
1015.83 1016.09 1016.03 1016.01 1015.84 1015.79 1015.87 1016.05 1016.21 1016.31 1016.53 1015.92 1015.98 1015.59 1015.19 1015.09 1015.30 1015.72 1015.66 1015.92 1016.12 1016.30 1016.58 1016.81 1017.05 1017.36 1017.67 1017.97 1018.57 1018.84 1019.12 1019.41 1019.72 1020.04 1020.39 1020.80 1021.11 1021.39
1015.68 1015.65 1015.49 1015.82 1015.46 1015.33 1015.09 1015.09 1015.18 1015.26 1015.59 1015.74 1015.19 1015.16 1014.93 1015.02 1015.03 1015.18 1015.35 1015.31 1015.58 1015.69 1016.03 1016.15 1016.35 1016.75 1017.02 1016.87 1017.69 1017.90 1018.28 1018.72 1018.99 1019.25 1019.56 1019.87 1020.19 1020.52
1015.39 1015.20 1015.15 1015.22 1015.08 1014.48 1014.62 1014.59 1014.46 1014.62 1014.80 1015.01 1015.09 1014.51 1014.64 1014.57 1014.69 1014.62 1014.93 1014.87 1014.79 1014.85 1015.25 1015.48 1015.61 1016.08 1016.40 1016.69 1016.74 1016.87 1017.33 1017.73 1018.07 1018.42 1018.63 1018.89 1019.22 1019.50
1015.08 1014.85 1014.56 1014.49 1014.18 1014.05 1013.82 1013.76 1013.82 1013.76 1014.06 1014.10 1014.21 1014.28 1013.98 1014.03 1014.01 1013.89 1014.30 1014.29 1014.11 1013.96 1014.34 1014.71 1015.09 1015.46 1015.62 1016.07 1015.98 1015.98 1016.28 1016.57 1017.02 1017.42 1017.66 1017.95 1018.25 1018.54
1014.37 1014.16 1014.09 1013.65 1013.19 1013.13 1013.12 1013.15 1013.30 1013.28 1013.22 1013.16 1013.06 1013.37 1013.07 1013.07 1013.07 1013.23 1013.53 1013.90 1013.67 1013.21 1013.69 1013.88 1014.08 1014.50 1014.63 1014.85 1015.12 1015.37 1015.64 1015.81 1016.05 1016.28 1016.62 1016.94 1017.18 1017.44
1014.10 1013.99 1013.62 1013.14 1012.85 1012.79 1012.65 1012.61 1012.53 1011.95 1012.50 1012.63 1012.63 1012.40 1011.81 1011.92 1012.08 1012.53 1012.78 1013.02 1012.79 1012.85 1013.03 1013.13 1013.27 1013.32 1013.36 1013.54 1013.74 1014.09 1014.39 1014.75 1014.99 1015.18 1015.44 1015.76 1016.08 1016.39
1013.63 1013.47 1013.33 1012.86 1012.55 1012.72 1012.56 1011.99 1011.67 1011.46 1011.47 1011.96 1012.11 1012.32 1011.30 1011.15 1011.28 1011.30 1011.55 1012.25 1012.46 1012.32 1012.37 1012.43 1012.49 1012.44 1012.35 1012.53 1012.67 1012.98 1013.41 1013.76 1013.91 1014.08 1014.38 1014.74 1015.08 1015.34
1012.94 1012.75 1012.69 1012.37 1011.93 1012.12 1012.27 1011.72 1011.09 1010.81 1010.82 1010.84 1010.80 1011.60 1011.49 1011.50 1011.12 1011.50 1011.38 1011.65 1011.91 1011.92 1012.08 1012.03 1011.97 1012.10 1011.86 1011.62 1011.56 1011.91 1012.31 1012.70 1013.05 1013.39 1013.62 1013.75 1014.07 1014.64
1012.49 1012.24 1012.02 1011.88 1011.51 1011.47 1011.71 1011.39 1011.21 1010.74 1010.73 1010.67 1009.68 1010.73 1010.71 1010.64 1010.82 1011.16 1011.31 1011.12 1011.07 1011.21 1011.36 1011.89 1011.71 1011.85 1011.77 1011.49 1011.12 1011.07 1011.54 1012.16 1012.58 1012.87 1013.03 1013.10 1013.57 1014.08
1011.56 1011.33 1011.16 1011.13 1010.95 1010.88 1010.89 1010.93 1010.59 1010.88 1010.76 1010.42 1010.25 1010.52 1010.67 1010.52 1010.21 1010.29 1010.53 1010.64 1010.64 1010.39 1010.64 1010.86 1011.23 1011.57 1011.26 1011.30 1011.12 1010.90 1010.94 1011.53 1011.87 1012.15 1012.40 1012.61 1012.88 1013.28
1010.66 1010.25 1010.17 1010.27 1010.28 1010.19 1010.51 1010.22 1010.08 1010.51 1010.61 1010.48 1010.51 1010.58 1010.45 1009.86 1009.81 1009.73 1009.69 1009.67 1009.56 1009.63 1009.94 1010.01 1010.19 1010.59 1010.74 1010.93 1011.04 1010.94 1010.93 1011.02 1011.27 1011.73 1012.03 1012.42 1012.80 1013.11
1010.36 1009.84 1009.81 1009.79 1009.80 1009.72 1009.76 1009.87 1010.10 1010.34 1010.32 1010.20 1010.09 1010.03 1009.95 1009.53 1009.41 1009.49 1009.40 1009.32 1009.32 1009.07 1009.10 1009.27 1009.47 1009.47 1009.90 1010.18 1010.61 1010.72 1010.90 1010.93 1011.08 1011.36 1011.77 1011.96 1012.14 1012.55
1009.69 1009.46 1009.36 1009.30 1009.25 1009.16 1009.18 1009.19 1009.36 1009.45 1009.45 1009.33 1009.29 1009.28 1009.31 1009.24 1009.27 1009.30 1009.17 1009.02 1008.88 1008.64 1008.37 1008.48 1008.79 1009.16 1009.38 1009.82 1010.22 1010.43 1010.58 1010.77 1010.95 1011.15 1011.45 1011.75 1011.91 1012.07
1009.39 1009.01 1008.82 1008.75 1008.67 1008.62 1008.50 1008.33 1008.25 1008.27 1008.27 1008.09 1008.30 1008.31 1008.33 1008.37 1008.26 1008.44 1008.60 1008.56 1008.61 1008.40 1008.22 1008.25 1008.48 1008.76 1009.03 1009.48 1009.94 1010.09 1010.19 1010.53 1010.78 1011.04 1011.40 1012.09 1012.43 1012.50
1009.21 1008.66 1008.21 1007.99 1007.74 1007.49 1007.34 1007.23 1007.26 1007.29 1007.12 1007.28 1007.35 1007.43 1007.50 1007.51 1007.45 1007.61 1007.74 1008.01 1008.16 1008.04 1008.05 1008.10 1008.42 1009.04 1009.52 1009.88 1010.03 1009.71 1009.88 1010.16 1010.58 1010.88 1011.11 1011.61 1012.28 1012.65
1008.61 1007.84 1007.43 1007.01 1006.64 1006.40 1006.26 1006.12 1005.92 1005.82 1005.82 1006.23 1006.45 1006.44 1006.51 1006.73 1006.74 1006.84 1007.05 1007.34 1007.43 1007.46 1007.44 1007.72 1007.95 1008.20 1008.50 1008.86 1009.67 1009.90 1009.44 1009.81 1010.28 1010.70 1010.97 1011.39 1011.96 1012.59
1007.29 1006.70 1006.26 1005.89 1005.42 1005.19 1005.05 1004.95 1004.85 1004.80 1005.00 1005.20 1005.34 1005.43 1005.55 1005.64 1005.78 1005.85 1006.22 1006.43 1006.67 1006.78 1006.87 1007.08 1007.16 1007.06 1007.06 1007.30 1008.48 1009.49 1009.77 1009.61 1009.75 1010.34 1011.30 1012.29 1012.84 1013.07
1005.40 1005.22 1004.89 1004.61 1004.32 1004.11 1004.04 1003.97 1003.94 1003.89 1003.97 1004.22 1004.39 1004.61 1004.74 1004.88 1004.90 1004.95 1005.34 1005.65 1005.96 1006.09 1006.15 1006.16 1006.28 1006.77 1007.07 1007.38 1008.35 1009.12 1009.65 1009.72 1009.52 1009.86 1011.12 1011.80 1012.42 1012.81
1004.00 1003.72 1003.51 1003.45 1003.36 1003.26 1003.16 1003.07 1003.09 1003.19 1003.23 1003.32 1003.39 1003.51 1003.66 1003.96 1004.00 1003.99 1004.34 1004.63 1005.15 1005.27 1005.40 1005.93 1006.47 1006.75 1006.96 1007.12 1007.82 1008.75 1009.46 1010.30 1010.40 1010.46 1010.82 1010.82 1011.33 1011.69
1002.75 1002.60 1002.39 1002.31 1002.34 1002.34 1002.19 1002.18 1002.19 1002.23 1002.28 1002.43 1002.60 1002.77 1002.93 1003.04 1003.26 1003.51 1003.59 1003.82 1004.15 1004.64 1005.25 1005.96 1006.31 1006.61 1006.99 1007.13 1007.58 1008.65 1009.36 1010.08 1010.39 1010.80 1011.46 1011.56 1011.27 1011.22
Wind_Speed
8 8 7 6 6 6 6 6 4 3 4 2 3 4 5 6 9 9 10 14 19 19 19 18 18 20 20 19 20 18 18 19 19 18 17 17 18 18
6 7 7 6 7 7 7 6 7 5 5 4 4 3 4 5 8 10 11 13 18 19 19 19 18 19 21 20 18 18 16 17 16 18 18 18 18 17
5 7 7 8 6 5 5 6 7 6 7 3 4 2 3 6 5 8 8 8 7 17 17 19 20 20 21 20 19 18 18 18 18 17 19 19 18 19
3 4 9 5 9 7 6 8 7 8 6 10 3 5 6 5 4 6 6 6 7 10 14 15 18 20 20 17 18 18 18 18 18 18 19 19 19 19
3 6 8 6 7 6 7 6 6 6 6 4 7 3 4 3 4 3 4 6 6 10 11 12 15 17 16 15 17 17 17 16 18 17 17 18 19 19
5 8 7 8 9 8 6 7 6 6 5 4 6 5 4 4 3 3 4 5 6 7 9 10 11 15 17 16 16 17 18 18 18 18 18 19 19 20
7 7 8 9 12 10 6 7 7 6 5 4 7 4 4 4 5 4 5 4 6 7 6 7 6 6 9 13 16 22 22 20 19 19 19 18 19 18
9 8 8 12 9 10 11 12 10 7 7 4 5 7 8 6 5 6 5 4 4 5 7 5 8 8 9 8 16 17 17 19 20 21 21 20 21 21
7 6 8 7 7 7 7 9 13 14 16 4 5 11 7 9 7 6 7 5 4 4 5 3 6 8 8 10 16 19 21 21 22 21 20 20 21 20
7 7 6 9 8 6 7 8 8 6 8 6 4 17 13 7 10 8 8 6 3 3 5 5 5 6 6 8 15 19 20 21 20 20 19 17 17 17
6 6 6 8 9 5 6 8 8 6 6 9 13 16 8 9 3 3 5 6 6 4 7 4 3 3 4 6 7 17 17 17 17 17 17 17 16 13
6 8 12 12 12 6 5 6 7 9 6 6 5 4 5 7 7 7 4 7 5 3 5 6 3 4 3 2 2 5 5 9 11 13 14 13 13 7
6 6 6 12 14 10 10 7 9 1 4 6 3 5 5 5 4 7 9 8 7 7 5 7 5 3 2 2 2 3 5 3 3 3 7 8 11 10
8 7 5 12 13 11 8 12 12 4 2 2 2 6 7 5 4 5 8 9 9 11 6 9 3 5 5 3 3 2 4 4 4 4 4 4 6 8
8 9 8 9 11 9 13 11 5 4 5 5 7 7 7 6 3 3 6 9 9 10 8 11 6 4 4 3 3 3 3 4 5 4 5 4 5 4
8 7 7 10 8 9 8 7 8 8 8 8 7 5 5 5 5 5 4 5 5 5 8 10 9 6 4 5 4 3 5 3 4 4 2 2 1 2
5 4 6 5 6 5 6 7 7 8 8 8 7 7 6 5 5 4 4 3 4 2 3 3 5 6 3 5 4 6 5 4 4 4 3 3 2 2
4 6 7 8 8 8 8 8 8 10 10 8 8 7 7 6 4 4 5 5 6 5 4 4 5 4 2 1 2 4 5 5 5 6 6 5 4 3
6 8 8 9 9 9 9 9 9 9 10 9 8 8 7 6 6 5 4 4 5 6 5 5 9 7 8 8 3 7 5 5 7 7 5 3 5 5
7 10 10 10 9 9 9 9 9 8 7 8 9 8 7 7 6 6 6 6 6 6 5 5 7 10 8 8 6 3 8 7 7 7 4 3 6 8
10 10 10 10 10 9 10 9 10 9 8 7 8 8 7 7 8 7 6 8 8 7 8 9 7 4 4 7 5 4 3 11 3 6 7 5 3 3
10 10 9 9 9 9 9 9 8 8 8 7 8 8 7 8 8 8 8 8 8 8 6 4 5 6 4 5 7 7 5 4 11 17 12 4 5 6
10 9 8 9 8 9 8 8 8 8 8 8 7 7 7 8 8 8 8 9 8 8 6 6 6 3 2 1 6 6 8 9 5 6 5 12 8 10
Wind_Direction
237 222 223 231 217 216 220 214 215 290 283 271 264 195 197 200 207 204 211 213 217 221 218 216 210 209 210 208 209 217 211 209 206 211 215 221 223 224
203 220 221 231 224 218 218 219 211 216 261 211 231 226 198 208 205 205 210 206 213 221 216 211 212 210 208 209 208 209 213 214 209 209 212 214 219 224
200 218 233 233 236 225 222 219 219 204 233 266 241 225 224 237 213 207 199 202 205 214 215 214 216 215 215 214 213 214 216 217 214 211 213 216 217 220
255 245 257 244 238 232 216 225 221 211 204 252 245 236 215 215 226 218 202 204 211 204 211 213 214 212 211 207 213 215 218 217 214 212 214 216 220 222
281 269 273 263 267 262 231 225 222 215 209 242 261 229 231 208 202 210 210 201 210 216 218 206 206 205 199 210 210 209 212 214 215 214 212 215 219 222
273 269 270 261 259 263 257 245 229 219 193 188 271 248 215 215 217 201 220 211 209 209 204 208 206 206 206 210 211 213 215 216 216 215 215 216 216 221
241 248 263 255 249 253 258 259 240 231 198 186 233 237 217 186 205 190 222 212 220 201 204 199 195 208 215 225 230 222 217 214 215 217 218 219 221 221
290 299 283 281 274 265 245 245 246 247 241 203 223 229 223 214 196 201 199 200 228 183 193 223 190 199 206 204 223 230 225 221 220 219 220 222 224 227
257 275 295 298 285 282 264 239 237 227 234 242 250 262 238 211 185 197 202 199 214 171 192 212 189 219 206 211 212 215 221 220 220 221 223 223 225 226
243 245 264 280 277 286 295 302 296 254 206 190 231 264 242 218 196 192 188 202 245 190 190 219 177 222 192 216 210 216 220 222 221 223 225 223 223 223
231 238 252 275 274 211 277 288 276 255 205 196 187 262 291 298 260 142 186 171 220 227 197 238 193 247 201 205 205 206 212 216 221 225 227 222 219 214
246 250 244 248 266 234 251 265 280 288 319 271 48 282 262 227 199 228 240 226 211 201 195 197 195 194 231 263 194 169 190 205 219 226 229 225 210 213
252 254 235 227 250 247 233 239 243 219 287 321 327 293 281 251 224 217 224 223 229 242 197 182 180 215 233 189 229 165 158 144 184 208 224 221 200 199
266 268 247 214 245 246 229 241 248 269 279 298 276 267 271 266 249 240 236 231 228 239 170 197 214 180 196 181 223 182 184 172 178 171 156 134 171 205
261 266 280 230 243 262 230 235 226 230 236 220 237 238 233 250 284 262 255 250 241 237 223 198 209 170 193 206 197 192 166 202 194 175 175 173 162 162
261 270 262 259 247 261 267 244 228 226 216 224 229 224 204 196 206 233 234 234 247 250 225 213 209 174 179 218 202 187 199 210 184 197 186 97 141 176
326 285 278 251 261 242 240 239 239 237 228 230 226 236 236 214 205 199 232 213 229 243 250 180 197 196 176 171 195 213 185 187 185 142 112 105 45 10
251 254 249 247 246 243 234 235 225 224 226 216 215 216 232 234 223 209 209 211 228 231 220 186 156 145 127 127 13 187 181 169 157 147 138 129 105 47
235 247 246 241 240 238 237 235 233 221 218 213 215 213 213 222 211 227 229 218 233 231 200 180 191 191 182 191 149 31 178 163 153 150 143 124 142 140
234 241 242 241 239 238 239 236 233 228 214 218 216 214 214 219 217 218 220 228 223 225 201 189 200 200 201 191 156 135 13 162 165 145 123 92 81 88
237 233 234 238 237 238 242 242 240 233 220 215 220 218 221 217 222 218 227 229 216 209 208 200 209 164 119 112 123 138 81 17 113 152 143 119 117 140
245 237 235 234 236 236 235 233 235 229 223 218 222 224 225 218 222 215 210 218 218 220 206 163 149 146 151 180 157 140 128 92 65 73 53 78 166 168
240 237 238 234 233 233 229 224 224 230 225 228 224 224 219 224 228 237 229 216 209 198 167 159 153 137 95 146 138 138 135 134 131 117 72 22 67 86